EW8061 Weather Reports


time (UTC)temp
C
wind
direction
speed
KPH
gust
KPH
rain 1hr
cm
rain 24hr
cm
rain mn
cm
humidity
%
barometer
mb
20260506174530 10 292 1.6 8.0 0.00 0.00 0.00 91 1008.7
20260506173028 10 293 0.0 4.8 0.00 0.00 0.00 91 1008.5
20260506171535 10 293 1.6 12.9 0.00 0.00 0.00 91 1008.4
20260506170024 10 288 4.8 19.3 0.00 0.00 0.00 91 1008.2
20260506164525 10 284 4.8 12.9 0.00 0.00 0.00 91 1008.2
20260506163037 10 284 4.8 14.5 0.00 0.00 0.00 91 1008.1
20260506161522 10 298 3.2 11.3 0.00 0.00 0.00 90 1008.1
20260506160023 10 292 4.8 17.7 0.00 0.00 0.00 90 1008.0
20260506154524 10 281 1.6 16.1 0.00 0.00 0.00 91 1007.9
20260506153016 10 290 1.6 14.5 0.00 0.00 0.00 91 1007.8
20260506151515 10 284 3.2 11.3 0.00 0.00 0.00 91 1007.7
20260506150015 10 285 4.8 14.5 0.00 0.00 0.00 91 1007.6
20260506144516 10 302 8.0 19.3 0.00 0.00 0.00 91 1007.7
20260506143016 10 307 8.0 19.3 0.00 0.00 0.00 91 1007.5
20260506141510 10 303 8.0 20.9 0.00 0.00 0.00 91 1007.5
20260506140008 10 281 9.7 17.7 0.00 0.00 0.00 91 1007.4
20260506134507 10 306 11.3 19.3 0.00 0.00 0.00 91 1007.4
20260506133006 10 294 9.7 17.7 0.00 0.00 0.00 91 1007.3
20260506131503 10 304 11.3 19.3 0.00 0.00 0.00 91 1007.2
20260506130106 11 284 3.2 14.5 0.00 0.00 0.00 91 1007.2
20260506124600 11 282 4.8 17.7 0.00 0.00 0.00 90 1007.1
20260506123055 11 279 9.7 19.3 0.00 0.00 0.00 89 1006.8
20260506121603 11 294 8.0 16.1 0.00 0.00 0.00 91 1006.7
20260506120108 11 303 9.7 16.1 0.00 0.00 0.00 90 1006.6
20260506114608 11 294 1.6 16.1 0.00 0.00 0.00 90 1006.6
20260506113052 11 288 6.4 16.1 0.00 0.00 0.00 91 1006.5
20260506111553 11 291 1.6 12.9 0.00 0.00 0.00 92 1006.4
20260506110049 11 284 4.8 16.1 0.00 0.00 0.00 91 1006.4
20260506104548 12 296 6.4 12.9 0.00 0.00 0.00 90 1006.3
20260506103048 12 288 3.2 16.1 0.00 0.00 0.00 88 1006.3
20260506101547 12 314 4.8 14.5 0.00 0.00 0.00 86 1005.9
20260506100049 12 295 1.6 11.3 0.00 0.00 0.00 85 1005.7
20260506094547 12 290 1.6 11.3 0.00 0.03 0.00 87 1005.7
20260506093105 12 288 3.2 14.5 0.00 0.03 0.00 83 1005.7
20260506091547 13 297 6.4 16.1 0.00 0.03 0.00 82 1005.5
20260506090046 13 313 8.0 19.3 0.00 0.03 0.00 80 1005.4
20260506084543 13 277 4.8 12.9 0.00 0.03 0.00 79 1005.2
20260506083043 13 274 1.6 14.5 0.00 0.03 0.00 79 1005.1
20260506081538 13 288 1.6 11.3 0.00 0.03 0.00 80 1005.1
20260506073033 12 192 0.0 11.3 0.00 0.03 0.00 82 1005.3
20260506071529 12 185 8.0 17.7 0.00 0.03 0.00 83 1005.1
20260506061519 11 153 0.0 4.8 0.00 0.03 0.00 90 1005.1
20260506044505 10 153 0.0 0.0 0.00 0.05 0.00 90 1005.2
20260506043004 10 153 0.0 0.0 0.00 0.05 0.00 90 1005.1
20260506041504 10 153 0.0 0.0 0.00 0.05 0.00 90 1005.0
20260506040003 10 153 0.0 3.2 0.00 0.05 0.00 90 1005.0
20260506034504 10 153 0.0 4.8 0.00 0.05 0.00 90 1004.9
20260506033002 10 153 0.0 1.6 0.00 0.05 0.00 90 1005.1
20260506031603 10 153 0.0 3.2 0.00 0.05 0.00 91 1005.3
20260506030100 10 153 0.0 4.8 0.00 0.05 0.00 91 1005.3
20260506024610 10 153 1.6 11.3 0.00 0.05 0.00 91 1005.3
20260506023058 10 152 0.0 11.3 0.00 0.05 0.00 91 1005.3
20260506021556 10 153 0.0 11.3 0.00 0.05 0.00 92 1005.4
20260506020122 10 153 0.0 14.5 0.00 0.05 0.00 92 1005.6
20260506014555 10 128 1.6 8.0 0.00 0.05 0.00 92 1005.6
20260506013054 10 128 0.0 6.4 0.00 0.05 0.00 92 1005.6
20260506011553 10 128 0.0 1.6 0.00 0.05 0.00 92 1005.5
20260506010053 10 128 1.6 8.0 0.00 0.05 0.00 91 1005.6
20260506004551 10 128 3.2 8.0 0.00 0.05 0.00 91 1005.8
20260506003050 9 127 0.0 8.0 0.00 0.05 0.00 91 1005.7
20260506001556 9 127 1.6 8.0 0.00 0.05 0.00 90 1005.9
20260506000057 10 127 0.0 3.2 0.00 0.05 0.00 90 1006.0
20260505234544 10 127 0.0 6.4 0.00 0.05 0.00 90 1005.9
20260505233047 10 127 1.6 11.3 0.00 0.05 0.00 90 1006.1
20260505231538 10 128 0.0 8.0 0.00 0.05 0.00 90 1006.1
20260505230043 11 128 0.0 6.4 0.00 0.05 0.00 89 1006.4
20260505224543 11 127 6.4 12.9 0.00 0.05 0.00 89 1006.3
20260505223038 11 138 3.2 12.9 0.00 0.05 0.00 89 1006.3
20260505221530 11 138 1.6 8.0 0.00 0.05 0.00 89 1006.3
20260505220028 11 138 1.6 8.0 0.00 0.05 0.00 89 1006.4
20260505214528 11 140 3.2 12.9 0.00 0.05 0.05 89 1006.6
20260505213029 11 144 3.2 12.9 0.00 0.05 0.05 89 1006.6
20260505211531 12 145 0.0 8.0 0.00 0.05 0.05 89 1006.5
20260505210025 11 145 0.0 1.6 0.00 0.05 0.05 88 1006.5
20260505204525 12 145 0.0 0.0 0.00 0.05 0.05 88 1006.3
20260505203025 12 145 0.0 6.4 0.00 0.05 0.05 87 1006.2
20260505201524 12 145 0.0 0.0 0.00 0.05 0.05 86 1006.1
20260505200023 12 145 0.0 0.0 0.00 0.05 0.05 86 1005.9
20260505194523 13 145 0.0 6.4 0.00 0.05 0.05 86 1005.9
20260505193022 13 145 0.0 6.4 0.00 0.05 0.05 87 1005.9
20260505191525 13 145 1.6 8.0 0.00 0.05 0.05 86 1005.6
20260505190022 14 145 0.0 6.4 0.00 0.05 0.05 86 1005.6
20260505184523 14 145 0.0 4.8 0.00 0.05 0.05 86 1005.4
20260505183023 15 145 1.6 8.0 0.00 0.05 0.05 87 1005.3
20260505181522 15 145 0.0 0.0 0.00 0.05 0.05 86 1005.2
20260505180019 15 145 0.0 0.0 0.00 0.05 0.05 86 1005.2